Voltar ao catálogo

SPACEVAN-001

AtivoComunicaçõesSSO
NORAD 58295·PAYLOAD·🇫🇷 France

Lançado Nov 11, 2023 de Vandenberg Space Force Base

Loading…

Próximas Passagens (próximas 24 horas)

TLE

AtualizadoSource: Space-Track

Época: Sep 14, 2026, 14:36 UTC

1 58295U 23174AR  26257.60842601  .00029913  00000-0  36432-3 0  9990
2 58295  97.4006 358.2888 0008001 101.2810 258.9347 15.60436619160074

Acompanhe SPACEVAN-001 em tempo real com AllMySat

Download on the App Store